Regional Weather Roundup
Issued by NWS Goodland, KS

Home | Current Version | Previous Version | Graphics & Text | Print | Product List | Glossary On
Versions: 1 2 3 4 5 6 7 8 9 10 11 12 13 14 15 16 17 18 19 20 21 22 23 24 25 26 27 28 29 30 31 32 33 34 35 36 37 38 39 40 41 42 43 44 45 46 47 48 49 50
000
ASUS43 KGLD 180708
RWRGLD

GOODLAND FORECAST AREA HOURLY WEATHER ROUNDUP
NATIONAL WEATHER SERVICE GOODLAND KS
1200 AM MST THU DEC 18 2014

...OFFICIAL OBSERVATIONS...

CITY           SKY/WX    TMP DP  RH WIND       PRES   REMARKS
GOODLAND KS    LGT SNOW  25  23  92 CALM      30.05S FOG
HILL CITY KS   CLOUDY    26  24  92 E6        30.14S FOG
IMPERIAL NEB   FOG       25  22  88 S5        30.07F VSB 3/4
MCCOOK NEB     LGT SNOW  25  23  92 CALM      30.12S VSB 1
AKRON CO       MOCLDY    16  15  96 SW7       29.98F
BURLINGTON CO  CLOUDY    24  22  91 S3        30.03S
LIMON CO       MOCLDY    18  16  92 NW5       29.99S
$$

...UNOFFICIAL OBSERVATIONS...

CITY           SKY/WX    TMP DP  RH WIND       PRES   REMARKS
GOVE KS          N/A     28  32 100 MISG        N/A
SHARON SPRINGS   N/A     26  25  95 CALM        N/A
TRIBUNE KS     CLOUDY    28  28 100 N7        30.06F VSB 3/4
KIT CARSON CO    N/A     26  24  92 MISG        N/A
$$



USA.gov is the U.S. government's official web portal to all federal, state and local government web resources and services.